Zurück zum Katalog

STARLINK-30586

AktivKommunikationVLEO
NORAD 58084·PAYLOAD·🇺🇸 United States

Gestartet Oct 18, 2023 von Cape Canaveral Space Force Station

Loading…

Nächste Überflüge (nächste 24 Stunden)

TLE

AktuellSource: CelesTrak SupGP

Epoche: Sep 15, 2026, 02:02 UTC

1 58084C 23160K   26258.08520833  .00024240  00000+0  87788-3 0  2589
2 58084  42.9996  91.7000 0001473 272.8946   1.2756 15.27570142    12

Verfolge STARLINK-30586 in Echtzeit mit AllMySat

Download on the App Store